FENGYUN 1C DEB, 43359

Orbit data source: Space-Track

FENGYUN 1C DEB, 43359 is space debris in SSO originally from a launch on Mon, 10 May 1999 UTC launched from the Taiyaun Space Center, China (TSC). Fengyun 1C debris stems from the Chinese weather satellite Fengyun-1C, which was intentionally destroyed by a Chinese anti-satellite missile in 2007. This event dramatically increased the amount of space debris, with thousands of trackable fragments posing hazards to satellites and human spaceflight. The Fengyun 1C debris cloud has become a focal point in discussions about space sustainability and the need for international regulations to prevent the creation of new debris.

Loading next visibility...
Identifier
43359, 1999-025EYQ
Orbit
SSO
Country
Flag of CNCN / PRC
Related business
Manufacturer
Unknown
Mission
Spacecraft
Bus & Motor
Unknown
Mass
Unknown
Launch date (UTC)
1999-05-10 (27 years ago)
Launch vehicle
Unknown
Launch site
Taiyaun Space Center, China (TSC)
Object type
Payload
Rocket body
Debris
Shape & HBR
Unknown shape, 0.1 m
Radar Cross Section
Small (<0.1 m²)

Expand to show TLE details & history
Last TLE update: 2 days ago

TLE from 2 days ago
0 FENGYUN 1C DEB
1 43359U 99025EYQ 26171.21471836  .00003465  00000-0  14554-2 0  9997
2 43359  99.0481 261.7695 0075427 188.9475 171.0364 14.25020215504463
Epoch: 2026-06-20T05:09Z
TLE epoch observation values (Epoch: 2026-06-20T05:09:11.666Z)
Latitude
0.00001°
Longitude
-83.96166°
Altitude
864.9 km
Speed
7.392 km/s
True Right ascension
17h 27m 04s
True Declination
0° 00' 00"
Sunlit
Object was in full shadow at epoch
Visualization orbit readout
Latitude
Unknown
Longitude
Unknown
Altitude
Unknown
Speed
Unknown
Apparent Right ascension
Unknown
Apparent Declination
Unknown
Sunlit
N/A
Visualization observer readout
Local Sidereal Time
21:36:05
Azimuth
Unknown
Elevation
Unknown
Doppler factor
Unknown
Orbital elements
Apogee altitude
859.778 km
Perigee altitude
751.408 km
Semi-major axis
7,183.73 km
Eccentricity
0.00754
Inclination
99.0481°
RAAN
261.7695°
Arg. of periapsis
188.9475°
True anomaly
171.16983°
Mean anomaly
171.0364°
Eccentric anomaly
171.10324°
Mean motion
3.56466 °/min
Orbital period
100.99 mins
BSTAR
0.0014554
Loading maneuver chart data...
Computing Atmospheric mass density...
Loading historical data...
Loading historical data...
Loading historical data...
Loading historical data...
Loading historical data...
Loading historical data...
Loading historical data...

Documentation

Showing up to 5 results
|